Home   Weather   Nassau   Past weeks
Flag for Bahamas

Past Weather in Nassau, Bahamas — Yesterday and Last 2 Weeks

Now
77 °F

Passing clouds.


Feels Like: 78 °F
Forecast: 82 / 75 °F
Wind: 10 mph from Southeast

Location: Nassau Airport

Current Time: Feb 22, 2019 at 3:23:34 am

Latest Report: Feb 22, 2019 at 2:00 am


Visibility: N/A

Pressure: 30.13 "Hg

Humidity: 83%

Dew Point: 72 °F

Location of NassauLocation

Past Weather in Nassau — Graph

°F

Nassau Temperature Yesterday

Maximum temperature yesterday: 82 °F (at 12:00 pm)
Minimum temperature yesterday: 75 °F (at 2:00 am)
Average temperature yesterday: 79 °F

High & Low Weather Summary for the Past Weeks

 TemperatureHumidityPressure
High84 °F (Feb 12, 1:00 pm)100% (Feb 13, 4:00 pm)30.27 "Hg (Feb 13, 4:00 pm)
Low63 °F (Feb 16, 5:00 am)54% (Feb 7, 2:00 pm)29.91 "Hg (Feb 16, 3:00 pm)
Average75 °F79%30.10 "Hg
* Reported Feb 7 2:00 am — Feb 22 2:00 am, Nassau. Weather by CustomWeather, © 2019

Note: Actual official high and low records may vary slightly from our data, if they occured in-between our weather recording intervals... More about our weather records

Advertising

Nassau Weather History for the Previous 24 Hours

Scroll right to see more
 ConditionsComfort  
Time TempWeatherWind HumidityBarometerVisibility
2:00 am
Fri, Feb 22
77 °FPassing clouds.10 mph83%30.13 "HgN/A
1:00 am77 °FPassing clouds.13 mph79%30.15 "HgN/A
12:00 am77 °FPassing clouds.9 mph83%30.16 "HgN/A
11:00 pm
Thu, Feb 21
77 °FPassing clouds.8 mph83%30.17 "HgN/A
10:00 pm77 °FPassing clouds.10 mph83%30.17 "HgN/A
9:00 pm77 °FPassing clouds.8 mph83%30.16 "HgN/A
8:00 pm77 °FPassing clouds.9 mph79%30.15 "HgN/A
7:00 pm79 °FPassing clouds.10 mph100%30.14 "HgN/A
6:00 pm79 °FScattered clouds.12 mph74%30.12 "HgN/A
5:00 pm79 °FScattered clouds.14 mph74%30.12 "HgN/A
4:00 pm81 °FScattered clouds.14 mph70%30.12 "HgN/A
3:00 pm81 °FScattered clouds.16 mph66%30.12 "HgN/A
2:00 pm81 °FScattered clouds.16 mph66%30.12 "HgN/A
1:00 pm82 °FPassing clouds.16 mph66%30.13 "HgN/A
12:00 pm82 °FScattered clouds.18 mph62%30.15 "HgN/A
11:00 am81 °FScattered clouds.20 mph70%30.18 "HgN/A
10:00 am81 °FPassing clouds.20 mph70%30.18 "HgN/A
9:00 am79 °FPassing clouds.18 mph74%30.17 "HgN/A
8:00 am77 °FPassing clouds.13 mph79%30.16 "HgN/A
7:00 am77 °FPassing clouds.9 mph83%30.15 "HgN/A
5:00 am75 °FPassing clouds.10 mph78%30.12 "HgN/A
Weather by CustomWeather, © 2019

See weather overview